Location: Forest
(37.3641°N, 79.2902°W)
Time: 21:18:43
(UTC+00:00)

SR - Visible Passes

Search period start: 08 November 2024 00:00
Search period end: 18 November 2024 00:00
Orbit: 575 x 857 km, 66.7° (Epoch: 07 November)

Date Brightness Start Highest point End Pass type
(mag) Time Alt. Az. Time Alt. Az. Time Alt. Az.
12 Nov ? 11:20:09 10° NNE 11:21:16 11° NE 11:22:24 10° NE visible
14 Nov ? 11:13:32 10° N 11:16:51 17° NE 11:20:18 10° E visible
16 Nov ? 11:07:56 10° N 11:12:19 25° NE 11:16:53 10° ESE visible
17 Nov ? 10:16:05 10° NNE 10:18:31 13° NE 10:21:01 10° ENE visible
